period_start,C,m1,H,J0,J1,J2,J3,J4,J5,JA,JB,JC,JD,JJ,JK,JN,#
2014-12-16 00:02:29,0.09,4.69,0.00,19.53,24.26,27.57,4.90,27.38,1031.27,2040.00,2014.01,2230.65,2422.73,349.84,356.78,26.25,0000 0000 0000 0000 000000
2014-12-16 00:07:30,0.10,4.70,0.00,19.62,24.27,27.58,4.93,27.41,1031.27,2040.00,2013.27,2230.02,2422.05,350.29,357.10,26.28,0000 0000 0000 0000 000000
2014-12-16 00:12:31,0.01,4.70,0.00,19.67,24.27,27.56,4.89,27.30,1031.26,2040.00,2012.98,2229.95,2421.90,349.56,356.31,26.31,0000 0000 0000 0000 000000
2014-12-16 00:17:32,0.16,4.70,0.00,19.67,24.27,27.53,4.88,27.21,1031.26,2040.00,2012.26,2229.24,2421.18,349.27,356.02,26.34,0000 0000 0000 0000 000000
2014-12-16 00:22:34,0.02,4.70,0.00,19.57,24.27,27.57,4.92,27.30,1031.26,2040.00,2011.83,2228.98,2420.98,349.88,356.54,26.37,0000 0000 0000 0000 000000
2014-12-16 00:27:35,0.14,4.70,0.00,19.55,24.27,27.55,4.99,27.33,1031.26,2040.00,2011.06,2228.52,2420.29,350.47,357.36,26.39,0000 0000 0000 0000 000000
2014-12-16 00:32:36,0.02,4.71,0.00,19.64,24.27,27.57,4.93,27.29,1031.26,2040.00,2011.00,2228.04,2419.99,350.07,356.77,26.42,0000 0000 0000 0000 000000
2014-12-16 00:37:37,0.11,4.71,0.00,19.67,24.27,27.57,5.00,27.38,1031.26,2040.00,2010.38,2227.84,2419.35,350.16,356.98,26.45,0000 0000 0000 0000 000000
2014-12-16 00:42:38,15.91,4.89,0.00,19.61,24.27,27.59,4.95,27.41,1031.26,2039.98,1936.97,2178.21,2367.50,349.71,356.66,26.48,0000 0000 0000 0000 000000
2014-12-16 00:47:40,1.87,5.26,0.00,19.46,24.27,27.58,4.95,27.43,1031.23,2039.98,1886.28,2144.25,2332.03,350.04,357.29,26.51,0000 0000 0000 0000 000000
2014-12-16 00:52:41,0.21,5.27,0.00,19.61,24.27,27.55,4.89,27.27,1031.11,2039.98,1884.54,2143.01,2330.66,349.52,356.26,26.54,0000 0000 0000 0000 000000
2014-12-16 00:57:43,0.11,5.28,0.90,19.65,24.27,27.60,4.92,27.43,1030.89,2039.98,1883.92,2142.14,2329.96,349.52,356.36,26.57,0000 0000 0000 0000 000000
2014-12-16 01:02:44,0.15,5.28,3.00,19.66,24.27,27.57,5.00,27.38,1030.80,2039.96,1883.06,2141.72,2329.12,350.33,356.68,26.60,0000 0000 0000 0000 000000
2014-12-16 01:07:45,0.13,5.28,3.00,19.51,24.27,27.55,4.93,27.38,1030.79,2039.98,1882.22,2141.04,2328.76,349.83,356.58,26.63,0000 0000 0000 0000 000000
2014-12-16 01:12:46,0.11,5.29,3.00,19.52,24.28,27.54,4.93,27.36,1030.78,2039.98,1881.73,2140.59,2328.04,350.13,356.82,26.66,0000 0000 0000 0000 000000
2014-12-16 01:17:47,0.09,5.29,3.00,19.66,24.29,27.55,4.99,27.43,1030.78,2039.98,1880.96,2140.01,2327.69,350.63,357.09,26.69,0000 0000 0000 0000 000000
2014-12-16 01:22:49,0.09,5.29,3.00,19.66,24.29,27.60,4.95,27.46,1030.78,2039.96,1880.30,2139.80,2327.04,349.90,356.15,26.72,0000 0000 0000 0000 000000
2014-12-16 01:27:50,0.13,5.30,2.10,19.69,24.29,27.59,4.89,27.36,1030.78,2039.98,1879.79,2139.06,2326.63,349.99,356.43,26.75,0000 0000 0000 0000 000000
2014-12-16 01:32:51,0.07,5.30,0.00,19.58,24.30,27.59,4.93,27.41,1030.78,2039.96,1879.00,2138.89,2326.02,350.64,357.10,26.77,0000 0000 0000 0000 000000
2014-12-16 01:37:52,0.15,5.30,0.00,19.64,24.30,27.63,4.92,27.43,1030.78,2039.99,1878.22,2138.14,2325.79,349.64,356.33,26.80,0000 0000 0000 0000 000000
2014-12-16 01:42:54,0.07,5.31,0.00,19.70,24.30,27.62,4.87,27.41,1030.78,2039.98,1877.76,2137.98,2325.07,349.42,355.87,26.83,0000 0000 0000 0000 000000
2014-12-16 01:47:55,0.11,5.31,0.00,19.70,24.30,27.61,4.89,27.32,1030.78,2039.99,1877.13,2137.36,2324.96,349.43,355.92,26.86,0000 0000 0000 0000 000000
2014-12-16 01:52:56,0.05,5.31,0.00,19.60,24.30,27.57,4.98,27.48,1030.78,2039.98,1876.93,2137.00,2324.18,350.29,356.76,26.89,0000 0000 0000 0000 000000
2014-12-16 01:57:57,0.10,5.31,0.00,19.64,24.30,27.58,4.95,27.31,1030.78,2039.99,1876.20,2136.67,2323.98,349.98,356.62,26.92,0000 0000 0000 0000 000000
2014-12-16 02:02:59,0.07,5.32,0.00,19.70,24.30,27.57,4.84,27.45,1030.78,2039.99,1876.00,2136.05,2323.40,349.56,356.05,26.95,0000 0000 0000 0000 000000
2014-12-16 02:08:00,0.03,5.32,0.00,19.72,24.31,27.62,4.96,27.41,1030.78,2039.98,1875.86,2135.95,2322.97,350.29,356.78,26.98,0000 0000 0000 0000 000000
2014-12-16 02:13:01,0.18,5.32,0.00,19.71,24.32,27.61,4.90,27.39,1030.78,2039.98,1875.00,2135.21,2322.26,349.79,356.24,27.01,0000 0000 0000 0000 000000
2014-12-16 02:18:02,0.07,5.33,0.00,19.59,24.32,27.62,4.87,27.51,1030.77,2039.97,1874.17,2134.98,2321.99,349.36,355.64,27.04,0000 0000 0000 0000 000000
2014-12-16 02:23:03,0.14,5.33,0.00,19.69,24.32,27.62,4.93,27.24,1030.73,2039.98,1873.74,2134.39,2321.42,350.24,356.50,27.07,0000 0000 0000 0000 000000
2014-12-16 02:28:04,0.06,5.33,0.00,19.74,24.32,27.61,4.96,27.41,1030.65,2039.99,1873.03,2134.01,2321.00,350.17,356.60,27.10,0000 0000 0000 0000 000000
2014-12-16 02:33:05,0.06,5.33,0.00,19.76,24.34,27.57,4.89,27.38,1030.52,2039.96,1872.98,2133.70,2320.51,349.60,356.23,27.13,0000 0000 0000 0000 000000
2014-12-16 02:38:07,0.09,5.34,0.00,19.69,24.34,27.64,4.91,27.38,1030.42,2039.88,1872.33,2133.05,2320.00,349.84,356.16,27.16,0000 0000 0000 0000 000000
2014-12-16 02:43:08,0.10,5.34,0.00,19.70,24.35,27.60,4.91,27.35,1030.32,2039.78,1871.69,2132.91,2319.50,349.86,356.29,27.18,0000 0000 0000 0000 000000
2014-12-16 02:48:09,0.12,5.34,0.00,19.76,24.35,27.60,4.96,27.42,1030.30,2039.90,1871.04,2132.18,2319.03,349.70,355.67,27.21,0000 0000 0000 0000 000000
2014-12-16 02:53:11,0.03,5.34,0.00,19.79,24.35,27.61,4.96,27.46,1030.29,2039.85,1870.78,2132.00,2318.92,350.01,356.55,27.24,0000 0000 0000 0000 000000
2014-12-16 02:58:12,0.09,5.35,0.00,19.81,24.35,27.62,4.95,27.31,1030.29,2039.80,1870.05,2131.75,2318.16,350.36,356.74,27.27,0000 0000 0000 0000 000000
2014-12-16 03:03:13,0.08,5.35,0.00,19.71,24.36,27.62,4.95,27.27,1030.29,2039.74,1869.76,2131.05,2317.99,350.36,356.70,27.30,0000 0000 0000 0000 000000
2014-12-16 03:08:15,0.09,5.35,0.00,19.77,24.37,27.63,4.94,27.40,1030.29,2039.88,1869.03,2130.99,2317.59,349.88,356.13,27.33,0000 0000 0000 0000 000000
2014-12-16 03:13:16,0.08,5.35,0.00,19.81,24.37,27.63,4.89,27.36,1030.29,2039.85,1868.88,2130.54,2317.03,349.79,355.97,27.36,0000 0000 0000 0000 000000
2014-12-16 03:18:16,0.03,5.36,0.00,19.81,24.37,27.66,4.90,27.31,1030.29,2039.63,1868.08,2130.02,2316.83,349.96,356.40,27.39,0000 0000 0000 0000 000000
2014-12-16 03:23:18,0.11,5.36,0.00,19.82,24.37,27.68,4.95,27.32,1030.29,2039.73,1867.79,2129.93,2316.15,350.34,356.32,27.42,0000 0000 0000 0000 000000
2014-12-16 03:28:19,0.09,5.36,0.00,19.71,24.37,27.70,4.88,27.39,1030.27,2039.66,1867.05,2129.22,2315.99,349.66,355.72,27.45,0000 0000 0000 0000 000000
2014-12-16 03:33:20,0.05,5.36,0.00,19.72,24.37,27.66,4.90,27.35,1030.26,2039.56,1866.67,2129.00,2315.38,349.71,356.14,27.48,0000 0000 0000 0000 000000
2014-12-16 03:38:22,0.03,5.36,0.00,19.79,24.38,27.64,4.93,27.43,1030.24,2039.11,1866.02,2128.50,2314.99,350.13,356.24,27.51,0000 0000 0000 0000 000000
2014-12-16 03:43:23,0.14,5.37,0.00,19.83,24.38,27.64,4.93,27.45,1030.27,2039.21,1865.47,2128.01,2314.58,350.00,355.87,27.54,0000 0000 0000 0000 000000
2014-12-16 03:48:24,0.05,5.37,0.00,19.85,24.39,27.66,4.90,27.23,1030.28,2039.30,1864.93,2127.96,2314.03,350.17,356.30,27.57,0000 0000 0000 0000 000000
2014-12-16 03:53:25,0.17,5.37,0.00,19.75,24.40,27.70,4.92,27.38,1030.25,2039.59,1864.16,2127.35,2313.96,349.87,356.04,27.59,0000 0000 0000 0000 000000
2014-12-16 03:58:27,0.03,5.38,0.00,19.72,24.40,27.69,4.92,27.28,1030.27,2039.40,1864.00,2127.00,2313.26,349.90,356.26,27.62,0000 0000 0000 0000 000000
2014-12-16 04:03:28,0.09,5.38,0.00,19.80,24.40,27.68,4.87,27.27,1030.28,2039.64,1863.71,2126.89,2313.00,350.01,356.15,27.65,0000 0000 0000 0000 000000
2014-12-16 04:08:29,0.13,5.38,0.00,19.85,24.40,27.64,4.86,27.30,1030.29,2039.57,1863.01,2126.13,2312.66,349.47,355.51,27.68,0000 0000 0000 0000 000000
2014-12-16 04:13:31,0.02,5.38,0.00,19.87,24.41,27.67,4.88,27.40,1030.29,2039.44,1862.83,2125.96,2312.03,350.37,356.74,27.71,0000 0000 0000 0000 000000
2014-12-16 04:18:32,0.10,5.39,0.00,19.88,24.42,27.67,4.96,27.32,1030.29,2039.15,1861.97,2125.20,2311.33,349.49,355.63,27.74,0000 0000 0000 0000 000000
2014-12-16 04:23:33,0.10,5.39,0.00,19.75,24.42,27.73,4.97,27.28,1030.29,2039.17,1861.09,2124.98,2311.00,349.83,356.04,27.77,0000 0000 0000 0000 000000
2014-12-16 04:28:35,0.13,5.39,0.00,19.83,24.42,27.67,4.97,27.32,1030.29,2039.16,1860.55,2124.46,2310.60,349.87,356.04,27.80,0000 0000 0000 0000 000000
2014-12-16 04:33:36,0.05,5.39,0.00,19.86,24.43,27.67,4.87,27.33,1030.29,2039.14,1859.94,2124.01,2310.03,349.82,355.86,27.83,0000 0000 0000 0000 000000
2014-12-16 04:38:37,0.08,5.40,0.00,19.89,24.44,27.71,4.98,27.49,1030.27,2039.12,1859.21,2123.79,2309.88,350.40,356.49,27.86,0000 0000 0000 0000 000000
2014-12-16 04:43:38,0.09,5.40,0.00,19.91,24.45,27.72,4.89,27.34,1030.27,2039.11,1858.96,2123.08,2309.11,350.37,356.19,27.89,0000 0000 0000 0000 000000
2014-12-16 04:48:40,0.07,5.40,0.00,19.82,24.45,27.73,4.91,27.42,1030.25,2039.19,1858.37,2123.00,2309.00,349.77,355.88,27.92,0000 0000 0000 0000 000000
2014-12-16 04:53:41,0.06,5.40,0.00,19.84,24.46,27.73,4.96,27.44,1030.10,2039.13,1858.01,2122.78,2308.72,349.97,356.05,27.95,0000 0000 0000 0000 000000
2014-12-16 04:58:42,0.12,5.41,0.00,19.91,24.47,27.72,4.90,27.42,1029.96,2039.08,1857.41,2122.06,2308.04,349.77,355.77,27.98,0000 0000 0000 0000 000000
2014-12-16 05:03:43,-0.00,5.41,0.00,19.92,24.47,27.71,4.83,27.43,1029.89,2039.06,1857.23,2121.98,2307.91,349.60,355.63,28.00,0000 0000 0000 0000 000000
2014-12-16 05:08:45,0.12,5.41,0.00,19.92,24.47,27.72,4.89,27.26,1029.88,2039.02,1857.01,2121.42,2307.09,349.66,355.58,28.03,0000 0000 0000 0000 000000
2014-12-16 05:13:46,0.07,5.41,0.00,19.93,24.49,27.73,4.96,27.39,1029.83,2039.00,1856.43,2121.01,2306.94,350.23,356.00,28.06,0000 0000 0000 0000 000000
2014-12-16 05:18:47,0.06,5.41,0.00,19.86,24.50,27.79,4.95,27.36,1029.81,2039.00,1856.01,2120.92,2306.20,350.21,356.17,28.09,0000 0000 0000 0000 000000
2014-12-16 05:23:48,0.12,5.42,0.00,19.93,24.50,27.75,4.93,27.27,1029.81,2039.00,1855.56,2120.17,2306.00,350.40,356.21,28.12,0000 0000 0000 0000 000000
2014-12-16 05:28:49,0.05,5.42,0.00,19.99,24.50,27.74,4.88,27.32,1029.81,2039.00,1855.01,2120.00,2305.60,349.22,355.20,28.15,0000 0000 0000 0000 000000
2014-12-16 05:33:51,0.02,5.42,0.00,19.98,24.50,27.76,4.85,27.26,1029.80,2039.00,1855.00,2119.87,2305.05,349.61,355.53,28.18,0000 0000 0000 0000 000000
2014-12-16 05:38:52,0.13,5.42,0.00,20.00,24.52,27.74,4.92,27.45,1029.81,2039.00,1854.34,2119.10,2304.95,350.21,355.91,28.21,0000 0000 0000 0000 000000
2014-12-16 05:43:53,0.05,5.43,0.00,20.00,24.52,27.79,4.97,27.41,1029.82,2039.00,1853.90,2118.99,2304.32,349.97,356.02,28.24,0000 0000 0000 0000 000000
2014-12-16 05:48:54,0.11,5.43,0.00,19.88,24.52,27.78,4.87,27.38,1029.83,2039.00,1853.15,2118.60,2304.01,349.83,355.78,28.27,0000 0000 0000 0000 000000
2014-12-16 05:53:56,0.05,5.43,0.00,19.99,24.52,27.74,4.91,27.31,1029.82,2039.00,1852.85,2118.04,2303.86,350.12,355.94,28.30,0000 0000 0000 0000 000000
2014-12-16 05:58:57,0.09,5.43,0.00,20.05,24.53,27.77,4.96,27.39,1029.81,2039.00,1852.08,2117.99,2303.12,350.73,356.50,28.33,0000 0000 0000 0000 000000
2014-12-16 06:03:58,0.06,5.44,0.00,20.06,24.55,27.79,4.86,27.31,1029.81,2039.00,1851.97,2117.53,2303.00,349.51,355.22,28.36,0000 0000 0000 0000 000000
2014-12-16 06:08:59,0.11,5.44,0.00,20.07,24.55,27.80,4.91,27.27,1029.82,2039.00,1851.33,2117.04,2302.74,350.07,355.95,28.39,0000 0000 0000 0000 000000
2014-12-16 06:14:00,0.03,5.44,0.00,20.05,24.55,27.79,4.85,27.17,1029.83,2039.00,1851.10,2116.96,2302.14,349.71,355.39,28.41,0000 0000 0000 0000 000000
2014-12-16 06:19:02,0.17,5.44,0.00,19.97,24.56,27.80,4.98,27.33,1029.83,2039.00,1850.60,2116.16,2301.57,350.57,356.12,28.44,0000 0000 0000 0000 000000
2014-12-16 06:24:04,0.10,5.45,0.00,19.98,24.57,27.80,4.88,27.31,1029.83,2038.99,1849.70,2115.79,2300.99,349.06,354.86,28.47,0000 0000 0000 0000 000000
2014-12-16 06:29:05,0.17,5.45,0.00,20.05,24.57,27.83,4.87,27.27,1029.81,2038.98,1848.69,2115.03,2300.20,349.89,355.62,28.50,0000 0000 0000 0000 000000
2014-12-16 06:34:06,0.12,5.46,0.00,20.07,24.58,27.82,4.91,27.32,1029.80,2038.98,1847.97,2114.42,2299.80,350.07,355.75,28.53,0000 0000 0000 0000 000000
2014-12-16 06:39:07,0.16,5.46,0.00,20.07,24.60,27.86,4.89,27.52,1029.80,2038.98,1847.01,2113.80,2298.93,349.99,355.71,28.56,0000 0000 0000 0000 000000
2014-12-16 06:44:09,0.17,5.47,0.00,20.08,24.60,27.85,4.85,27.35,1029.80,2038.99,1845.92,2113.03,2298.06,349.89,355.57,28.59,0000 0000 0000 0000 000000
2014-12-16 06:49:10,0.19,5.47,0.00,20.07,24.60,27.89,4.94,27.49,1029.80,2038.98,1844.91,2112.25,2297.25,350.27,355.82,28.62,0000 0000 0000 0000 000000
2014-12-16 06:54:11,0.18,5.48,0.00,19.98,24.62,27.89,4.90,27.43,1029.80,2038.95,1843.94,2111.46,2296.40,349.77,355.47,28.65,0000 0000 0000 0000 000000
2014-12-16 06:59:13,0.12,5.48,0.00,20.04,24.62,27.87,4.90,27.33,1029.80,2038.97,1842.91,2110.99,2295.75,349.95,355.64,28.68,0000 0000 0000 0000 000000
2014-12-16 07:04:14,0.18,5.49,0.00,20.10,24.63,27.89,4.86,27.48,1029.80,2038.96,1841.86,2110.20,2294.98,349.53,355.34,28.71,0000 0000 0000 0000 000000
2014-12-16 07:09:15,0.13,5.49,0.00,20.13,24.64,27.87,4.86,27.35,1029.80,2038.97,1841.01,2109.74,2294.17,349.90,355.51,28.74,0000 0000 0000 0000 000000
2014-12-16 07:14:16,0.17,5.50,0.00,20.10,24.65,27.87,4.88,27.41,1029.80,2038.97,1840.03,2109.00,2293.48,349.24,354.98,28.77,0000 0000 0000 0000 000000
2014-12-16 07:19:17,0.16,5.50,0.00,20.11,24.65,27.91,4.90,27.38,1029.80,2038.94,1839.08,2108.19,2292.75,349.82,355.64,28.80,0000 0000 0000 0000 000000
2014-12-16 07:24:19,0.15,5.51,0.00,20.14,24.67,27.92,4.88,27.44,1029.80,2038.90,1838.09,2107.66,2292.01,350.10,355.71,28.82,0000 0000 0000 0000 000000
2014-12-16 07:29:20,0.14,5.51,0.00,20.02,24.67,27.90,4.99,27.57,1029.80,2038.88,1837.15,2107.01,2291.31,349.84,355.72,28.85,0000 0000 0000 0000 000000
2014-12-16 07:34:21,0.04,5.51,0.00,20.08,24.67,27.90,4.85,27.46,1029.80,2038.83,1836.85,2106.65,2290.99,349.73,355.60,28.88,0000 0000 0000 0000 000000
2014-12-16 07:39:22,0.08,5.51,0.00,20.15,24.68,27.90,4.88,27.52,1029.79,2038.60,1836.06,2106.03,2290.42,349.86,355.28,28.91,0000 0000 0000 0000 000000
2014-12-16 07:44:24,0.06,5.51,0.00,20.17,24.70,27.92,4.90,27.52,1029.80,2038.41,1835.69,2105.71,2289.92,349.70,355.32,28.94,0000 0000 0000 0000 000000
2014-12-16 07:49:25,0.08,5.52,0.00,20.18,24.70,27.97,4.88,27.42,1029.80,2038.20,1834.98,2105.03,2289.13,350.00,355.74,28.97,0000 0000 0000 0000 000000
2014-12-16 07:54:26,0.11,5.52,0.00,20.17,24.70,27.93,4.91,27.49,1029.80,2038.13,1834.17,2104.72,2288.85,349.95,355.70,29.00,0000 0000 0000 0000 000000
2014-12-16 07:59:28,0.13,5.52,0.00,20.21,24.72,27.95,4.90,27.48,1029.80,2038.07,1833.54,2104.00,2288.04,350.18,355.51,29.03,0000 0000 0000 0000 000000
2014-12-16 08:04:29,0.20,5.53,0.00,20.20,24.72,27.97,4.89,27.53,1029.80,2038.03,1832.39,2103.18,2287.22,350.09,355.45,29.06,0000 0000 0000 0000 000000
2014-12-16 08:09:31,0.17,5.53,0.00,20.08,24.72,27.93,4.91,27.43,1029.80,2038.04,1831.44,2102.61,2286.53,350.27,355.84,29.09,0000 0000 0000 0000 000000
2014-12-16 08:14:32,0.08,5.54,0.00,20.17,24.73,27.95,4.89,27.52,1029.80,2038.01,1830.66,2102.01,2286.00,349.53,354.91,29.12,0000 0000 0000 0000 000000
2014-12-16 08:19:33,0.14,5.54,0.00,20.22,24.74,28.00,4.90,27.49,1029.80,2038.01,1830.03,2101.49,2285.28,349.69,355.24,29.15,0000 0000 0000 0000 000000
2014-12-16 08:24:34,0.10,5.55,0.00,20.24,24.75,28.02,4.97,27.44,1029.80,2038.01,1829.23,2101.00,2284.80,350.21,355.64,29.18,0000 0000 0000 0000 000000
2014-12-16 08:29:36,0.18,5.55,0.00,20.21,24.75,27.94,4.96,27.45,1029.80,2038.01,1828.37,2100.34,2284.03,350.07,355.57,29.21,0000 0000 0000 0000 000000
2014-12-16 08:34:37,0.13,5.55,0.00,20.22,24.76,27.99,4.87,27.54,1029.80,2038.01,1827.49,2099.88,2283.46,349.47,354.94,29.23,0000 0000 0000 0000 000000
2014-12-16 08:39:38,0.13,5.56,0.00,20.26,24.77,28.00,4.91,27.48,1029.80,2038.00,1826.61,2099.12,2282.97,349.78,355.15,29.26,0000 0000 0000 0000 000000
2014-12-16 08:44:40,0.07,5.56,0.00,20.24,24.77,28.00,4.94,27.57,1029.80,2038.00,1826.01,2098.92,2282.26,350.27,355.82,29.29,0000 0000 0000 0000 000000
2014-12-16 08:49:41,0.14,5.56,0.00,20.27,24.77,27.99,4.92,27.47,1029.80,2038.01,1825.54,2098.14,2281.86,350.05,355.42,29.32,0000 0000 0000 0000 000000
2014-12-16 08:54:42,0.15,5.57,0.00,20.30,24.79,28.01,4.85,27.49,1029.80,2038.00,1824.55,2097.76,2281.07,349.54,354.85,29.35,0000 0000 0000 0000 000000
2014-12-16 08:59:43,0.06,5.57,0.00,20.27,24.80,28.00,4.93,27.34,1029.80,2038.00,1824.00,2097.06,2280.87,350.59,356.02,29.38,0000 0000 0000 0000 000000
2014-12-16 09:04:44,0.06,5.57,0.00,20.27,24.80,28.02,4.90,27.29,1029.80,2038.01,1823.76,2096.98,2280.12,350.18,355.70,29.41,0000 0000 0000 0000 000000
2014-12-16 09:09:46,0.17,5.58,0.00,20.27,24.80,28.02,4.86,27.48,1029.80,2038.00,1822.86,2096.24,2279.77,349.50,354.99,29.44,0000 0000 0000 0000 000000
2014-12-16 09:14:47,0.09,5.58,0.00,20.28,24.82,28.03,4.93,27.43,1029.80,2038.00,1822.04,2095.89,2279.04,350.43,355.79,29.47,0000 0000 0000 0000 000000
2014-12-16 09:19:48,0.17,5.59,0.00,20.29,24.82,28.06,4.89,27.48,1029.80,2038.00,1821.46,2095.08,2278.46,349.37,354.96,29.50,0000 0000 0000 0000 000000
2014-12-16 09:24:49,0.03,5.59,0.00,20.29,24.82,28.03,4.90,27.43,1029.80,2038.00,1820.94,2094.89,2278.00,349.40,354.82,29.53,0000 0000 0000 0000 000000
2014-12-16 09:29:50,0.18,5.59,0.00,20.29,24.84,28.08,4.90,27.48,1029.80,2037.99,1820.13,2094.10,2277.34,350.02,355.38,29.56,0000 0000 0000 0000 000000
2014-12-16 09:34:51,0.07,5.60,0.00,20.26,24.85,28.07,4.91,27.46,1029.79,2037.99,1819.47,2093.91,2276.98,349.98,355.39,29.59,0000 0000 0000 0000 000000
2014-12-16 09:39:53,0.18,5.60,0.00,20.28,24.85,28.08,4.90,27.45,1029.79,2037.98,1818.71,2093.13,2276.23,350.06,355.59,29.61,0000 0000 0000 0000 000000
2014-12-16 09:44:54,0.04,5.60,0.00,20.31,24.85,28.10,4.93,27.42,1029.71,2037.99,1818.19,2092.95,2275.91,349.63,355.13,29.64,0000 0000 0000 0000 000000
2014-12-16 09:49:55,0.17,5.61,0.00,20.29,24.85,28.09,4.89,27.40,1029.46,2037.99,1817.55,2092.18,2275.13,350.17,355.51,29.67,0000 0000 0000 0000 000000
2014-12-16 09:54:56,0.14,5.61,0.00,20.30,24.86,28.08,4.86,27.44,1029.37,2037.99,1816.53,2091.80,2274.66,349.56,354.86,29.70,0000 0000 0000 0000 000000
2014-12-16 09:59:58,0.12,5.62,0.00,20.32,24.87,28.14,4.98,27.33,1029.36,2037.97,1815.74,2091.05,2274.01,350.51,355.64,29.73,0000 0000 0000 0000 000000
2014-12-16 10:04:59,0.10,5.62,0.00,20.27,24.87,28.12,4.92,27.37,1029.33,2037.98,1814.98,2090.82,2273.59,350.11,355.55,29.76,0000 0000 0000 0000 000000
2014-12-16 10:10:00,0.14,5.62,0.00,20.29,24.87,28.12,4.90,27.39,1029.32,2037.99,1814.14,2090.07,2273.00,349.89,355.12,29.79,0000 0000 0000 0000 000000
2014-12-16 10:15:01,0.09,5.62,0.00,20.28,24.87,28.15,4.91,27.41,1029.32,2037.97,1813.71,2089.85,2272.50,349.92,355.18,29.82,0000 0000 0000 0000 000000
2014-12-16 10:20:02,0.11,5.63,0.00,20.31,24.87,28.11,4.93,27.37,1029.32,2037.99,1813.04,2089.09,2272.00,350.28,355.63,29.85,0000 0000 0000 0000 000000
2014-12-16 10:25:04,0.10,5.63,0.00,20.34,24.87,28.10,4.85,27.41,1029.31,2037.98,1812.47,2088.96,2271.53,349.26,354.49,29.88,0000 0000 0000 0000 000000
2014-12-16 10:30:05,0.10,5.63,0.00,20.34,24.89,28.17,4.93,27.33,1029.31,2037.98,1811.93,2088.30,2271.02,350.63,355.85,29.91,0000 0000 0000 0000 000000
2014-12-16 10:35:06,0.11,5.64,0.00,20.35,24.89,28.14,4.86,27.47,1029.31,2037.98,1811.10,2087.99,2270.54,349.75,354.87,29.94,0000 0000 0000 0000 000000
2014-12-16 10:40:07,0.14,5.64,0.00,20.33,24.90,28.14,4.88,27.44,1029.31,2037.96,1810.34,2087.45,2270.01,350.21,355.60,29.97,0000 0000 0000 0000 000000
2014-12-16 10:45:09,0.06,5.64,0.00,20.34,24.90,28.18,4.94,27.38,1029.32,2037.98,1809.94,2087.01,2269.66,350.76,355.84,30.00,0000 0000 0000 0000 000000
2014-12-16 10:50:10,0.12,5.65,0.00,20.32,24.90,28.14,4.90,27.43,1029.33,2037.97,1809.13,2086.72,2269.03,350.20,355.46,30.02,0000 0000 0000 0000 000000
2014-12-16 10:55:12,0.05,5.65,0.00,20.36,24.90,28.16,4.89,27.39,1029.34,2037.96,1809.00,2086.13,2268.83,350.19,355.51,30.05,0000 0000 0000 0000 000000
2014-12-16 11:00:13,0.14,5.65,0.00,20.33,24.90,28.17,4.90,27.40,1029.33,2037.96,1808.42,2085.78,2268.06,350.12,355.43,30.08,0000 0000 0000 0000 000000
2014-12-16 11:05:14,0.16,5.66,0.00,20.36,24.92,28.16,4.86,27.43,1029.32,2037.97,1807.52,2085.04,2267.36,349.90,355.15,30.11,0000 0000 0000 0000 000000
2014-12-16 11:10:16,0.18,5.66,0.00,20.35,24.92,28.19,4.86,27.38,1029.31,2037.95,1806.47,2084.35,2266.67,349.74,354.95,30.14,0000 0000 0000 0000 000000
2014-12-16 11:15:17,0.13,5.67,0.00,20.36,24.92,28.18,4.92,27.44,1029.31,2037.93,1805.26,2083.83,2266.00,350.12,355.09,30.17,0000 0000 0000 0000 000000
2014-12-16 11:20:18,0.17,5.67,0.00,20.36,24.92,28.19,4.92,27.48,1029.31,2037.92,1804.39,2083.06,2265.33,350.20,355.42,30.20,0000 0000 0000 0000 000000
2014-12-16 11:25:19,0.07,5.67,0.00,20.39,24.92,28.18,4.93,27.52,1029.31,2037.88,1803.90,2082.67,2264.90,350.52,355.41,30.23,0000 0000 0000 0000 000000
2014-12-16 11:30:20,0.11,5.68,0.00,20.41,24.94,28.16,4.92,27.38,1029.31,2037.75,1803.11,2082.02,2264.10,350.09,355.18,30.26,0000 0000 0000 0000 000000
2014-12-16 11:35:22,0.16,5.68,0.00,20.39,24.95,28.19,4.91,27.37,1029.31,2037.64,1802.38,2081.51,2263.60,350.29,355.63,30.29,0000 0000 0000 0000 000000
2014-12-16 11:40:23,0.00,5.68,0.00,20.40,24.95,28.19,4.96,27.47,1029.31,2037.51,1801.97,2081.00,2263.00,350.30,355.25,30.32,0000 0000 0000 0000 000000
2014-12-16 11:45:24,0.17,5.69,0.00,20.42,24.95,28.18,4.88,27.33,1029.31,2037.40,1801.18,2080.52,2262.36,349.87,354.88,30.35,0000 0000 0000 0000 000000
2014-12-16 11:50:25,0.06,5.69,0.00,20.43,24.95,28.22,4.90,27.41,1029.30,2037.26,1800.21,2079.97,2261.91,349.86,354.96,30.38,0000 0000 0000 0000 000000
2014-12-16 11:55:27,0.18,5.70,0.00,20.43,24.96,28.21,4.89,27.41,1029.30,2037.26,1799.18,2079.20,2261.11,349.38,354.40,30.41,0000 0000 0000 0000 000000
2014-12-16 12:00:28,0.12,5.70,0.00,20.43,24.97,28.19,4.93,27.34,1029.30,2037.17,1798.33,2078.81,2260.61,350.61,355.81,30.43,0000 0000 0000 0000 000000
2014-12-16 12:05:29,0.14,5.70,0.00,20.43,24.97,28.24,4.92,27.34,1029.30,2037.24,1797.66,2078.06,2260.01,350.11,355.21,30.46,0000 0000 0000 0000 000000
2014-12-16 12:10:31,0.12,5.71,0.00,20.44,24.97,28.21,4.91,27.44,1029.26,2037.31,1797.00,2077.78,2259.36,349.76,354.51,30.49,0000 0000 0000 0000 000000
2014-12-16 12:15:32,0.08,5.71,0.00,20.44,24.97,28.24,4.87,27.43,1029.25,2037.14,1796.56,2077.04,2258.76,349.44,354.41,30.52,0000 0000 0000 0000 000000
2014-12-16 12:20:33,0.08,5.71,0.00,20.45,24.98,28.23,4.88,27.41,1029.09,2037.07,1795.97,2076.65,2258.07,349.74,354.66,30.55,0000 0000 0000 0000 000000
2014-12-16 12:25:34,0.14,5.72,0.00,20.44,24.99,28.25,4.93,27.42,1028.87,2037.08,1795.13,2076.02,2257.67,350.37,355.32,30.58,0000 0000 0000 0000 000000
2014-12-16 12:30:36,0.13,5.72,0.00,20.44,25.00,28.25,4.89,27.52,1028.84,2037.03,1794.47,2075.51,2257.02,349.66,354.59,30.61,0000 0000 0000 0000 000000
2014-12-16 12:35:37,0.06,5.72,0.00,20.45,25.00,28.25,4.90,27.44,1028.83,2037.00,1793.98,2075.01,2256.42,350.42,355.10,30.64,0000 0000 0000 0000 000000
2014-12-16 12:40:38,0.16,5.73,0.00,20.46,25.00,28.30,4.95,27.46,1028.83,2037.00,1793.13,2074.39,2255.96,350.29,355.36,30.67,0000 0000 0000 0000 000000
2014-12-16 12:45:39,0.12,5.73,0.00,20.45,25.00,28.28,4.93,27.52,1028.83,2037.00,1792.32,2074.00,2255.20,350.55,355.33,30.70,0000 0000 0000 0000 000000
2014-12-16 12:50:41,0.15,5.74,0.00,20.46,25.01,28.28,4.86,27.46,1028.83,2037.00,1791.59,2073.33,2254.85,349.57,354.45,30.73,0000 0000 0000 0000 000000
2014-12-16 12:55:42,0.10,5.74,0.00,20.48,25.02,28.24,4.94,27.48,1028.84,2037.00,1790.78,2072.93,2254.06,350.18,354.89,30.76,0000 0000 0000 0000 000000
2014-12-16 13:00:44,0.15,5.74,0.00,20.48,25.02,28.25,4.83,27.33,1028.83,2037.00,1790.02,2072.20,2253.55,349.09,354.04,30.79,0000 0000 0000 0000 000000